Powrót do katalogu

OPS 0856

AktywnyMilitariaPO
NORAD 2403·PAYLOAD·🇺🇸 United States

Wystrzelony Aug 19, 1966 z Vandenberg Space Force Base

Loading…

Następne Przeloty (najbliższe 24 godziny)

TLE

ŚwieżeSource: Space-Track

Epoka: Sep 14, 2026, 11:27 UTC

1 02403U 66077A   26257.47742238 -.00000017  00000-0 -92095-2 0  9991
2 02403  90.3281 277.4731 0006131 357.8598   2.2226  8.59841246534138

Śledź OPS 0856 w czasie rzeczywistym z AllMySat

Download on the App Store